{"data":{"norad_id":55449,"intl_designator":"2023-015A","name":"STARLINK-5699","alt_names":[],"object_type":"PAYLOAD","status":"ACTIVE","operator":null,"country":"US","launch_date":"2023-02-02","launch_site_code":"AFETR","launch_vehicle":null,"mission":null,"orbit_class":"UNKNOWN","rcs_meters":null,"size_class":null,"mass_kg":null,"dimensions":null,"purposes":["comms"],"wikipedia_slug":null,"has_3d_model":false,"image_url":null,"decayed_at":null,"tle_current":{"epoch":"2026-09-20T10:40:11.350848Z","epoch_age_seconds":105174,"freshness":"FRESH","line1":"1 55449U 23015A   26263.44457582 -.00000556  00000+0 -10696-4 0  9999","line2":"2 55449  43.0041 309.1659 0001112 301.9876  58.0868 15.27573354201441","mean_motion":15.27573354,"eccentricity":0.0001112,"inclination_deg":43.0041,"raan_deg":309.1659,"arg_perigee_deg":301.9876,"mean_anomaly_deg":58.0868,"bstar":-1.0696e-5,"rev_number":20144,"period_min":94.267158839169,"perigee_km":482.30603051987,"apogee_km":483.83196273352,"semimajor_km":6861.2059966267,"source":"CELESTRAK","updated_at":"2026-09-21T09:00:33.224953Z"}}}